Location: Ciula Mare
(45.6000°N, 22.8167°E)
Time: 20:08:31
(UTC+00:00)

Cosmos 883 Rocket - Pass Details

Date: 03 February 2023
Orbit: 950 x 995 km, 83.0° (Epoch: 23 March)

Event Time Altitude Azimuth Distance (km) Brightness Sun altitude
Rises 18:09:08 0° 185° (S) 3,658 7.5 -26.7°
Reaches altitude 10° 18:11:37 10° 186° (S) 2,721 6.8 -27.2°
Maximum altitude 18:17:53 89° 100° (E) 993 4.4 -28.2°
Drops below altitude 10° 18:24:15 10° 9° (N) 2,765 6.8 -29.4°
Sets 18:26:48 0° 9° (N) 3,722 7.5 -29.8°
